Time,TemperatureF,DewpointF,PressureIn,WindDirection,WindDirectionDegrees,WindSpeedMPH,WindSpeedGustMPH,Humidity,HourlyPrecipIn,Conditions,Clouds,dailyrainin,SoftwareType,DateUTC
2015-02-27 00:04:00,29.1,24.1,30.13,NNW,344,0.0,0.0,81,0.00,,,0.00,meteobridge,2015-02-27 05:04:00,
2015-02-27 00:09:00,29.1,24.1,30.14,NNW,344,0.0,0.0,81,0.00,,,0.00,meteobridge,2015-02-27 05:09:00,
2015-02-27 00:14:00,29.1,24.1,30.14,NNW,344,0.0,0.0,81,0.00,,,0.00,meteobridge,2015-02-27 05:14:00,
2015-02-27 00:19:00,29.1,24.3,30.14,NNW,344,0.0,0.0,82,0.00,,,0.00,meteobridge,2015-02-27 05:19:00,
2015-02-27 00:24:00,29.1,24.3,30.14,NNW,344,0.0,0.0,82,0.00,,,0.00,meteobridge,2015-02-27 05:24:00,
2015-02-27 00:30:00,28.9,24.1,30.14,NNW,344,0.0,0.0,82,0.00,,,0.00,meteobridge,2015-02-27 05:30:00,
2015-02-27 00:35:00,28.9,23.9,30.14,NNW,344,0.0,0.0,81,0.00,,,0.00,meteobridge,2015-02-27 05:35:00,
2015-02-27 00:40:00,28.8,23.7,30.15,NNW,344,0.0,0.0,81,0.00,,,0.00,meteobridge,2015-02-27 05:40:00,
2015-02-27 00:45:00,28.8,23.4,30.15,NNW,344,0.0,0.0,80,0.00,,,0.00,meteobridge,2015-02-27 05:45:00,
2015-02-27 00:50:00,28.8,23.4,30.15,NNW,344,0.0,0.0,80,0.00,,,0.00,meteobridge,2015-02-27 05:50:00,
2015-02-27 00:55:00,28.8,23.7,30.15,NNW,344,0.0,0.0,81,0.00,,,0.00,meteobridge,2015-02-27 05:55:00,
2015-02-27 01:00:00,28.8,23.7,30.15,NNW,344,0.0,0.0,81,0.00,,,0.00,meteobridge,2015-02-27 06:00:00,
2015-02-27 01:05:00,28.8,23.4,30.15,NNW,344,0.0,0.0,80,0.00,,,0.00,meteobridge,2015-02-27 06:05:00,
2015-02-27 01:10:00,28.8,23.4,30.16,NNW,344,0.0,0.0,80,0.00,,,0.00,meteobridge,2015-02-27 06:10:00,
2015-02-27 01:15:00,28.6,22.8,30.16,NNW,344,0.0,0.0,79,0.00,,,0.00,meteobridge,2015-02-27 06:15:00,
2015-02-27 01:20:00,28.6,22.8,30.16,NNW,344,0.0,0.0,79,0.00,,,0.00,meteobridge,2015-02-27 06:20:00,
2015-02-27 01:25:00,28.4,22.6,30.16,NNW,344,0.0,0.0,79,0.00,,,0.00,meteobridge,2015-02-27 06:25:00,
2015-02-27 01:31:00,28.4,22.5,30.16,NNW,344,0.0,0.0,78,0.00,,,0.00,meteobridge,2015-02-27 06:31:00,
2015-02-27 01:36:00,28.2,22.3,30.16,NNW,344,0.0,0.0,78,0.00,,,0.00,meteobridge,2015-02-27 06:36:00,
2015-02-27 01:42:00,28.2,22.3,30.16,NNW,344,0.0,0.0,78,0.00,,,0.00,meteobridge,2015-02-27 06:42:00,
2015-02-27 01:47:00,28.2,21.9,30.16,NNW,344,0.0,0.0,77,0.00,,,0.00,meteobridge,2015-02-27 06:47:00,
2015-02-27 01:52:00,28.2,21.9,30.16,NNW,344,0.0,0.0,77,0.00,,,0.00,meteobridge,2015-02-27 06:52:00,
2015-02-27 01:57:00,28.2,21.6,30.17,NNW,344,0.0,0.0,76,0.00,,,0.00,meteobridge,2015-02-27 06:57:00,
2015-02-27 02:02:00,28.2,21.9,30.17,NNW,344,0.0,0.0,77,0.00,,,0.00,meteobridge,2015-02-27 07:02:00,
2015-02-27 02:07:00,28.0,21.4,30.17,NNW,344,0.0,0.0,76,0.00,,,0.00,meteobridge,2015-02-27 07:07:00,
2015-02-27 02:13:00,28.0,21.4,30.17,NNW,344,0.0,0.0,76,0.00,,,0.00,meteobridge,2015-02-27 07:13:00,
2015-02-27 02:18:00,27.9,21.6,30.17,NNW,344,0.0,0.0,77,0.00,,,0.00,meteobridge,2015-02-27 07:18:00,
2015-02-27 02:23:00,27.9,21.6,30.17,NNW,344,0.0,0.0,77,0.00,,,0.00,meteobridge,2015-02-27 07:23:00,
2015-02-27 02:28:00,27.5,21.2,30.17,NNW,344,0.0,0.0,77,0.00,,,0.00,meteobridge,2015-02-27 07:28:00,
2015-02-27 02:34:00,27.1,20.7,30.18,NNW,344,0.0,0.0,76,0.00,,,0.00,meteobridge,2015-02-27 07:34:00,
2015-02-27 02:39:00,27.0,20.7,30.18,NNW,344,0.0,0.0,77,0.00,,,0.00,meteobridge,2015-02-27 07:39:00,
2015-02-27 02:44:00,26.8,20.5,30.18,NNW,344,0.0,0.0,77,0.00,,,0.00,meteobridge,2015-02-27 07:44:00,
2015-02-27 02:49:00,26.4,20.1,30.18,NNW,344,0.0,0.0,77,0.00,,,0.00,meteobridge,2015-02-27 07:49:00,
2015-02-27 02:55:00,26.2,19.9,30.19,NNW,344,0.0,0.0,77,0.00,,,0.00,meteobridge,2015-02-27 07:55:00,
2015-02-27 03:00:00,26.1,19.8,30.19,NNW,344,0.0,0.0,77,0.00,,,0.00,meteobridge,2015-02-27 08:00:00,
2015-02-27 03:05:00,25.9,19.8,30.19,NNW,344,0.0,0.0,77,0.00,,,0.00,meteobridge,2015-02-27 08:05:00,
2015-02-27 03:10:00,25.7,19.6,30.19,NNW,344,0.0,0.0,77,0.00,,,0.00,meteobridge,2015-02-27 08:10:00,
2015-02-27 03:16:00,25.5,19.4,30.19,NNW,344,0.0,0.0,77,0.00,,,0.00,meteobridge,2015-02-27 08:16:00,
2015-02-27 03:21:00,25.5,19.6,30.20,NNW,344,0.0,0.0,78,0.00,,,0.00,meteobridge,2015-02-27 08:21:00,
2015-02-27 03:26:00,25.3,19.4,30.19,NNW,344,0.0,0.0,78,0.00,,,0.00,meteobridge,2015-02-27 08:26:00,
2015-02-27 03:31:00,25.3,19.4,30.19,NNW,344,0.0,0.0,78,0.00,,,0.00,meteobridge,2015-02-27 08:31:00,
2015-02-27 03:36:00,25.3,19.4,30.19,NNW,344,0.0,0.0,78,0.00,,,0.00,meteobridge,2015-02-27 08:36:00,
2015-02-27 03:41:00,25.2,19.2,30.19,NNW,344,0.0,0.0,78,0.00,,,0.00,meteobridge,2015-02-27 08:41:00,
2015-02-27 03:46:00,25.2,19.2,30.19,NNW,344,0.0,0.0,78,0.00,,,0.00,meteobridge,2015-02-27 08:46:00,
2015-02-27 03:51:00,25.2,19.6,30.20,NNW,344,0.0,0.0,79,0.00,,,0.00,meteobridge,2015-02-27 08:51:00,
2015-02-27 03:56:00,25.2,19.9,30.20,NNW,344,0.0,0.0,80,0.00,,,0.00,meteobridge,2015-02-27 08:56:00,
2015-02-27 04:02:00,25.0,19.8,30.20,NNW,344,0.0,0.0,80,0.00,,,0.00,meteobridge,2015-02-27 09:02:00,
2015-02-27 04:07:00,25.0,19.9,30.20,NNW,344,0.0,0.0,81,0.00,,,0.00,meteobridge,2015-02-27 09:07:00,
2015-02-27 04:13:00,24.8,19.8,30.21,NNW,344,0.0,0.0,81,0.00,,,0.00,meteobridge,2015-02-27 09:13:00,
2015-02-27 04:18:00,24.8,19.8,30.22,NNW,344,0.0,0.0,81,0.00,,,0.00,meteobridge,2015-02-27 09:18:00,
2015-02-27 04:23:00,24.6,19.6,30.22,NNW,344,0.0,0.0,81,0.00,,,0.00,meteobridge,2015-02-27 09:23:00,
2015-02-27 04:28:00,24.8,19.8,30.22,NNW,344,0.0,0.0,81,0.00,,,0.00,meteobridge,2015-02-27 09:28:00,
2015-02-27 04:33:00,25.0,19.9,30.22,NNW,344,0.0,0.0,81,0.00,,,0.00,meteobridge,2015-02-27 09:33:00,
2015-02-27 04:38:00,25.0,20.3,30.22,NNW,344,0.0,0.0,82,0.00,,,0.00,meteobridge,2015-02-27 09:38:00,
2015-02-27 04:43:00,25.2,20.5,30.23,NNW,344,0.0,0.0,82,0.00,,,0.00,meteobridge,2015-02-27 09:43:00,
2015-02-27 04:48:00,25.3,20.7,30.23,NNW,344,0.0,0.0,82,0.00,,,0.00,meteobridge,2015-02-27 09:48:00,
2015-02-27 04:53:00,25.3,20.7,30.23,NNW,344,0.0,0.0,82,0.00,,,0.00,meteobridge,2015-02-27 09:53:00,
2015-02-27 04:58:00,25.5,20.8,30.23,NNW,344,0.0,0.0,82,0.00,,,0.00,meteobridge,2015-02-27 09:58:00,
2015-02-27 05:03:00,25.7,21.0,30.23,NNW,344,0.0,0.0,82,0.00,,,0.00,meteobridge,2015-02-27 10:03:00,
2015-02-27 05:08:00,25.9,21.2,30.24,NNW,344,0.0,0.0,82,0.00,,,0.00,meteobridge,2015-02-27 10:08:00,
2015-02-27 05:13:00,25.7,20.7,30.24,NNW,344,0.0,0.0,81,0.00,,,0.00,meteobridge,2015-02-27 10:13:00,
2015-02-27 05:18:00,25.5,20.5,30.24,NNW,344,0.0,0.0,81,0.00,,,0.00,meteobridge,2015-02-27 10:18:00,
2015-02-27 05:23:00,25.5,20.8,30.25,NNW,344,0.0,0.0,82,0.00,,,0.00,meteobridge,2015-02-27 10:23:00,
2015-02-27 05:28:00,25.5,20.8,30.26,ENE,61,0.9,1.0,82,0.00,,,0.00,meteobridge,2015-02-27 10:28:00,
2015-02-27 05:34:00,25.5,20.5,30.26,ESE,110,0.0,0.0,81,0.00,,,0.00,meteobridge,2015-02-27 10:34:00,
2015-02-27 05:39:00,25.7,20.5,30.26,ENE,63,0.0,0.0,80,0.00,,,0.00,meteobridge,2015-02-27 10:39:00,
2015-02-27 05:44:00,25.7,20.1,30.27,ENE,63,0.0,0.0,79,0.00,,,0.00,meteobridge,2015-02-27 10:44:00,
2015-02-27 05:49:00,25.7,19.8,30.27,NNE,22,0.0,2.0,78,0.00,,,0.00,meteobridge,2015-02-27 10:49:00,
2015-02-27 05:54:00,25.9,19.4,30.27,North,10,0.0,2.0,76,0.00,,,0.00,meteobridge,2015-02-27 10:54:00,
2015-02-27 05:59:00,25.9,19.0,30.27,North,10,0.0,0.0,75,0.00,,,0.00,meteobridge,2015-02-27 10:59:00,
2015-02-27 06:04:00,25.9,19.0,30.27,North,10,0.0,1.0,75,0.00,,,0.00,meteobridge,2015-02-27 11:04:00,
2015-02-27 06:09:00,25.9,19.0,30.27,North,10,0.0,0.0,75,0.00,,,0.00,meteobridge,2015-02-27 11:09:00,
2015-02-27 06:14:00,25.7,18.9,30.28,North,10,0.0,0.0,75,0.00,,,0.00,meteobridge,2015-02-27 11:14:00,
2015-02-27 06:19:00,25.7,18.5,30.28,North,10,0.0,1.0,74,0.00,,,0.00,meteobridge,2015-02-27 11:19:00,
2015-02-27 06:24:00,25.5,18.1,30.28,NW,323,0.9,1.0,73,0.00,,,0.00,meteobridge,2015-02-27 11:24:00,
2015-02-27 06:29:00,25.3,17.2,30.28,WNW,294,0.9,3.0,71,0.00,,,0.00,meteobridge,2015-02-27 11:29:00,
2015-02-27 06:34:00,25.2,17.1,30.29,WNW,297,0.0,1.0,71,0.00,,,0.00,meteobridge,2015-02-27 11:34:00,
2015-02-27 06:40:00,25.0,17.2,30.29,WNW,297,0.0,1.0,72,0.00,,,0.00,meteobridge,2015-02-27 11:40:00,
2015-02-27 06:45:00,24.6,16.5,30.30,NE,44,0.0,2.0,71,0.00,,,0.00,meteobridge,2015-02-27 11:45:00,
2015-02-27 06:50:00,24.4,16.3,30.30,NE,44,0.0,0.0,71,0.00,,,0.00,meteobridge,2015-02-27 11:50:00,
2015-02-27 06:55:00,24.4,16.0,30.31,NE,44,0.0,1.0,70,0.00,,,0.00,meteobridge,2015-02-27 11:55:00,
2015-02-27 07:00:00,24.3,16.0,30.31,NE,44,0.0,1.0,70,0.00,,,0.00,meteobridge,2015-02-27 12:00:00,
2015-02-27 07:05:00,23.9,15.6,30.32,NW,313,0.0,1.0,70,0.00,,,0.00,meteobridge,2015-02-27 12:05:00,
2015-02-27 07:10:00,23.7,15.1,30.32,NW,314,0.0,1.0,69,0.00,,,0.00,meteobridge,2015-02-27 12:10:00,
2015-02-27 07:15:00,23.4,14.4,30.33,NW,314,0.0,0.0,68,0.00,,,0.00,meteobridge,2015-02-27 12:15:00,
2015-02-27 07:20:00,23.2,13.8,30.33,NW,314,0.0,0.0,67,0.00,,,0.00,meteobridge,2015-02-27 12:20:00,
2015-02-27 07:26:00,22.8,13.1,30.33,NW,314,0.0,1.0,66,0.00,,,0.00,meteobridge,2015-02-27 12:26:00,
2015-02-27 07:31:00,22.6,12.9,30.34,NW,315,0.0,1.0,66,0.00,,,0.00,meteobridge,2015-02-27 12:31:00,
2015-02-27 07:36:00,22.5,13.1,30.34,NW,315,0.0,0.0,67,0.00,,,0.00,meteobridge,2015-02-27 12:36:00,
2015-02-27 07:41:00,22.3,12.7,30.35,NNW,333,2.0,3.0,66,0.00,,,0.00,meteobridge,2015-02-27 12:41:00,
2015-02-27 07:46:00,22.3,13.3,30.35,NNE,19,0.0,1.0,68,0.00,,,0.00,meteobridge,2015-02-27 12:46:00,
2015-02-27 07:51:00,22.3,12.7,30.35,NW,319,0.9,2.0,66,0.00,,,0.00,meteobridge,2015-02-27 12:51:00,
2015-02-27 07:56:00,22.1,12.2,30.35,WNW,290,0.0,2.0,65,0.00,,,0.00,meteobridge,2015-02-27 12:56:00,
2015-02-27 08:01:00,22.3,12.4,30.36,NNW,329,0.9,1.0,65,0.00,,,0.00,meteobridge,2015-02-27 13:01:00,
2015-02-27 08:06:00,22.3,12.4,30.37,North,352,0.9,3.0,65,0.00,,,0.00,meteobridge,2015-02-27 13:06:00,
2015-02-27 08:11:00,22.3,12.0,30.37,NNW,329,2.0,2.0,64,0.00,,,0.00,meteobridge,2015-02-27 13:11:00,
2015-02-27 08:16:00,22.3,12.4,30.37,North,350,0.0,1.0,65,0.00,,,0.00,meteobridge,2015-02-27 13:16:00,
2015-02-27 08:21:00,22.1,11.5,30.37,NW,310,0.0,2.0,63,0.00,,,0.00,meteobridge,2015-02-27 13:21:00,
2015-02-27 08:27:00,22.3,11.7,30.38,NNW,333,0.0,1.0,63,0.00,,,0.00,meteobridge,2015-02-27 13:27:00,
2015-02-27 08:32:00,22.5,11.5,30.38,NNW,342,0.0,2.0,62,0.00,,,0.00,meteobridge,2015-02-27 13:32:00,
2015-02-27 08:38:00,22.6,11.7,30.38,NNW,342,0.0,1.0,62,0.00,,,0.00,meteobridge,2015-02-27 13:38:00,
2015-02-27 08:43:00,22.8,11.8,30.38,North,350,0.0,1.0,62,0.00,,,0.00,meteobridge,2015-02-27 13:43:00,
2015-02-27 08:49:00,22.8,10.6,30.38,NNW,327,0.0,3.0,59,0.00,,,0.00,meteobridge,2015-02-27 13:49:00,
2015-02-27 08:54:00,22.8,10.6,30.38,NNW,341,0.9,5.0,59,0.00,,,0.00,meteobridge,2015-02-27 13:54:00,
2015-02-27 08:59:00,23.0,10.8,30.39,NW,307,0.0,4.0,59,0.00,,,0.00,meteobridge,2015-02-27 13:59:00,
2015-02-27 09:04:00,23.2,10.9,30.39,WNW,294,0.9,3.0,59,0.00,,,0.00,meteobridge,2015-02-27 14:04:00,
2015-02-27 09:09:00,23.4,11.1,30.39,NW,316,0.0,0.0,59,0.00,,,0.00,meteobridge,2015-02-27 14:09:00,
2015-02-27 09:14:00,23.7,11.5,30.39,NNW,341,0.0,0.0,59,0.00,,,0.00,meteobridge,2015-02-27 14:14:00,
2015-02-27 09:19:00,24.1,11.5,30.40,NNW,341,0.9,1.0,58,0.00,,,0.00,meteobridge,2015-02-27 14:19:00,
2015-02-27 09:24:00,24.4,11.8,30.40,NE,44,0.0,1.0,58,0.00,,,0.00,meteobridge,2015-02-27 14:24:00,
2015-02-27 09:29:00,24.4,11.5,30.41,NW,326,0.9,1.0,57,0.00,,,0.00,meteobridge,2015-02-27 14:29:00,
2015-02-27 09:34:00,24.4,11.5,30.40,NNW,327,0.0,2.0,57,0.00,,,0.00,meteobridge,2015-02-27 14:34:00,
2015-02-27 09:39:00,24.6,11.1,30.40,NNW,329,0.0,1.0,56,0.00,,,0.00,meteobridge,2015-02-27 14:39:00,
2015-02-27 09:44:00,24.6,11.5,30.40,NNW,334,0.0,0.0,57,0.00,,,0.00,meteobridge,2015-02-27 14:44:00,
2015-02-27 09:49:00,25.3,12.6,30.40,NW,315,0.0,4.0,58,0.00,,,0.00,meteobridge,2015-02-27 14:49:00,
2015-02-27 09:55:00,25.5,11.1,30.40,NW,324,0.9,4.0,54,0.00,,,0.00,meteobridge,2015-02-27 14:55:00,
2015-02-27 10:00:00,25.2,10.9,30.41,NW,325,2.0,3.0,54,0.00,,,0.00,meteobridge,2015-02-27 15:00:00,
2015-02-27 10:05:00,24.6,11.1,30.41,NW,321,0.0,4.0,56,0.00,,,0.00,meteobridge,2015-02-27 15:05:00,
2015-02-27 10:10:00,25.0,11.8,30.41,North,356,0.0,1.0,57,0.00,,,0.00,meteobridge,2015-02-27 15:10:00,
2015-02-27 10:15:00,25.3,11.5,30.41,NNW,342,0.0,2.0,55,0.00,,,0.00,meteobridge,2015-02-27 15:15:00,
2015-02-27 10:20:00,25.7,12.9,30.41,NNW,328,0.9,2.0,58,0.00,,,0.00,meteobridge,2015-02-27 15:20:00,